Kezdőlap
METAR-TAF:

METAR-TAF

Repülőterek :

Southwest Minnesota Regional Airport (Marshall/Ryan Field)

Marshall, Minnesota, Amerikai Egyesült Államok

földrajzi szélesség: 44-27N, földrajzi hosszúság: 095-49W, magasság: 359 m

Jelenlegi meteorológiai megfigyelések

A jelentés 20 perccel ezelõtt készült, 12:56 UTC
Dél-délkeleti szél 8 kt
Hőmérséklet -13°C
Páratartalom 92%
Légköri nyomás 1026 hPa
Látótávolság: 16.1 km
Derült ég

METAR: KMML 081256Z AUTO 15008KT 10SM CLR M13/M14 A3029 RMK AO2 SLP290 T11281144 FZRANO

Idő: 07:16 (13:16 UTC)


TAF: hiányzik

Meteorológiai megfigyelések és előrejelzések több, mint 4000 repülőtéren (METAR és TAF jelentéseket).

A térképen piros és sárga pontok jelzik az elérhető meteorológiai állomásokat.

Mozgassa az egeret a pont fölött, hogy megjelenjen az állomás neve.

Azután kattintson az időjárási megfigyelések és előrejelzések megtekintéséhez.

A térkép megváltoztatása: kattintson a fekete keresztel jelölt zöld gombra ráközelítéshez, a vonallal jelölt zöld gombra távolításhoz, vagy a zöld nyilakra a szomszédos térképek eléréséhez.


METAR-TAF: